| time (UTC) | temp C | wind direction | speed KPH | gust KPH | rain 1hr cm | rain 24hr cm | rain mn cm | humidity % | barometer mb |
| 20260504173758 | 26 | 68 | 3.2 | 9.7 | 0.00 | 0.00 | 0.00 | 44 | 1013.6 |
| 20260504173257 | 26 | 114 | 3.2 | 6.4 | 0.00 | 0.00 | 0.00 | 43 | 1013.6 |
| 20260504172757 | 26 | 8 | 3.2 | 4.8 | 0.00 | 0.00 | 0.00 | 43 | 1013.6 |
| 20260504172257 | 26 | 358 | 3.2 | 8.0 | 0.00 | 0.00 | 0.00 | 43 | 1013.5 |
| 20260504171757 | 26 | 24 | 3.2 | 9.7 | 0.00 | 0.00 | 0.00 | 43 | 1013.5 |
| 20260504171256 | 26 | 30 | 3.2 | 9.7 | 0.00 | 0.00 | 0.00 | 43 | 1013.5 |
| 20260504170756 | 27 | 6 | 3.2 | 6.4 | 0.00 | 0.00 | 0.00 | 43 | 1013.7 |
| 20260504170256 | 27 | 1 | 3.2 | 6.4 | 0.00 | 0.00 | 0.00 | 42 | 1013.7 |
| 20260504160252 | 26 | 359 | 3.2 | 11.3 | 0.00 | 0.00 | 0.00 | 44 | 1014.2 |
| 20260504150749 | 25 | 8 | 3.2 | 6.4 | 0.00 | 0.00 | 0.00 | 39 | 1014.3 |
| 20260504150249 | 25 | 334 | 3.2 | 6.4 | 0.00 | 0.00 | 0.00 | 39 | 1014.3 |
| 20260504141246 | 23 | 43 | 3.2 | 4.8 | 0.00 | 0.00 | 0.00 | 26 | 1014.2 |
| 20260504140745 | 23 | 21 | 3.2 | 6.4 | 0.00 | 0.00 | 0.00 | 25 | 1014.1 |
| 20260504140245 | 23 | 11 | 3.2 | 6.4 | 0.00 | 0.00 | 0.00 | 22 | 1014.1 |
| 20260504130742 | 21 | 7 | 3.2 | 8.0 | 0.00 | 0.00 | 0.00 | 7 | 1013.6 |
| 20260504130242 | 21 | 30 | 3.2 | 6.4 | 0.00 | 0.00 | 0.00 | 3 | 1013.6 |
| 20260504120238 | 19 | 18 | 3.2 | 6.4 | 0.00 | 0.00 | 0.00 | 100 | 1013.2 |
| 20260504110235 | 93 | 767 | 410.4 | 410.4 | 0.00 | 0.00 | 0.00 | 100 | 1012.8 |
| 20260504100231 | 93 | 767 | 410.4 | 410.4 | 0.00 | 0.00 | 0.00 | 100 | 1012.7 |
| 20260504081725 | 93 | 767 | 410.4 | 410.4 | 0.00 | 0.00 | 0.00 | 100 | 1012.6 |
| 20260504081225 | 93 | 767 | 410.4 | 410.4 | 0.00 | 0.00 | 0.00 | 100 | 1012.6 |
| 20260504080724 | 93 | 767 | 410.4 | 410.4 | 0.00 | 0.00 | 0.00 | 100 | 1012.7 |
| 20260504080224 | 93 | 767 | 410.4 | 410.4 | 0.00 | 0.00 | 0.00 | 100 | 1012.7 |
| 20260504070221 | 93 | 767 | 410.4 | 410.4 | 0.00 | 0.00 | 0.00 | 100 | 1013.3 |
| 20260504060217 | 93 | 767 | 410.4 | 410.4 | 0.00 | 0.00 | 0.00 | 100 | 1013.2 |
| 20260504050714 | 93 | 767 | 410.4 | 410.4 | 0.00 | 0.00 | 0.00 | 100 | 1013.8 |
| 20260504050214 | 93 | 767 | 410.4 | 410.4 | 0.00 | 0.00 | 0.00 | 100 | 1013.8 |
| 20260504045713 | 93 | 767 | 410.4 | 410.4 | 0.00 | 0.00 | 0.00 | 100 | 1013.8 |
| 20260504045213 | 93 | 767 | 410.4 | 410.4 | 0.00 | 0.00 | 0.00 | 100 | 1014.0 |
| 20260504044713 | 93 | 767 | 410.4 | 410.4 | 0.00 | 0.00 | 0.00 | 100 | 1014.0 |
| 20260504044213 | 93 | 767 | 410.4 | 410.4 | 0.00 | 0.00 | 0.00 | 100 | 1014.0 |
| 20260504043712 | 93 | 767 | 410.4 | 410.4 | 0.00 | 0.00 | 0.00 | 100 | 1013.7 |
| 20260504043212 | 93 | 767 | 410.4 | 410.4 | 0.00 | 0.00 | 0.00 | 100 | 1013.7 |
| 20260504042712 | 93 | 767 | 410.4 | 410.4 | 0.00 | 0.00 | 0.00 | 100 | 1013.7 |
| 20260504042211 | 93 | 767 | 410.4 | 410.4 | 0.00 | 0.00 | 0.00 | 100 | 1014.2 |
| 20260504041711 | 93 | 767 | 410.4 | 410.4 | 0.00 | 0.00 | 0.00 | 100 | 1014.2 |
| 20260504041211 | 93 | 767 | 410.4 | 410.4 | 0.00 | 0.00 | 0.00 | 100 | 1014.2 |
| 20260504040711 | 93 | 767 | 410.4 | 410.4 | 0.00 | 0.00 | 0.00 | 100 | 1014.3 |
| 20260504040210 | 93 | 767 | 410.4 | 410.4 | 0.00 | 0.00 | 0.00 | 100 | 1014.3 |
| 20260504035710 | 93 | 767 | 410.4 | 410.4 | 0.00 | 0.00 | 0.00 | 100 | 1014.3 |
| 20260504035210 | 93 | 767 | 410.4 | 410.4 | 0.00 | 0.00 | 0.00 | 100 | 1014.3 |
| 20260504034709 | 93 | 767 | 410.4 | 410.4 | 0.00 | 0.00 | 0.00 | 100 | 1014.3 |
| 20260504034209 | 93 | 767 | 410.4 | 410.4 | 0.00 | 0.00 | 0.00 | 100 | 1014.3 |
| 20260504033709 | 93 | 767 | 410.4 | 410.4 | 0.00 | 0.00 | 0.00 | 100 | 1014.3 |
| 20260504033209 | 93 | 767 | 410.4 | 410.4 | 0.00 | 0.00 | 0.00 | 100 | 1014.3 |
| 20260504032708 | 93 | 767 | 410.4 | 410.4 | 0.00 | 0.00 | 0.00 | 100 | 1014.3 |
| 20260504032208 | 93 | 767 | 410.4 | 410.4 | 0.00 | 0.00 | 0.00 | 100 | 1014.2 |
| 20260504031708 | 93 | 767 | 410.4 | 410.4 | 0.00 | 0.00 | 0.00 | 100 | 1014.2 |
| 20260504031207 | 93 | 767 | 410.4 | 410.4 | 0.00 | 0.00 | 0.00 | 100 | 1014.2 |
| 20260504030707 | 93 | 767 | 410.4 | 410.4 | 0.00 | 0.00 | 0.00 | 100 | 1014.2 |
| 20260504030207 | 93 | 767 | 410.4 | 410.4 | 0.00 | 0.00 | 0.00 | 100 | 1014.2 |
| 20260504025706 | 93 | 767 | 410.4 | 410.4 | 0.00 | 0.00 | 0.00 | 100 | 1014.2 |
| 20260504025206 | 93 | 767 | 410.4 | 410.4 | 0.00 | 0.00 | 0.00 | 100 | 1014.2 |
| 20260504024706 | 93 | 767 | 410.4 | 410.4 | 0.00 | 0.00 | 0.00 | 100 | 1014.2 |
| 20260504024206 | 93 | 767 | 410.4 | 410.4 | 0.00 | 0.00 | 0.00 | 100 | 1014.2 |
| 20260504023705 | 93 | 767 | 410.4 | 410.4 | 0.00 | 0.00 | 0.00 | 100 | 1013.9 |
| 20260504023205 | 93 | 767 | 410.4 | 410.4 | 0.00 | 0.00 | 0.00 | 100 | 1013.9 |
| 20260504022705 | 93 | 767 | 410.4 | 410.4 | 0.00 | 0.00 | 0.00 | 100 | 1013.9 |
| 20260504022204 | 93 | 767 | 410.4 | 410.4 | 0.00 | 0.00 | 0.00 | 100 | 1013.8 |
| 20260504021704 | 93 | 767 | 410.4 | 410.4 | 0.00 | 0.00 | 0.00 | 100 | 1013.8 |
| 20260504021204 | 93 | 767 | 410.4 | 410.4 | 0.00 | 0.00 | 0.00 | 100 | 1013.8 |
| 20260504020703 | 93 | 767 | 410.4 | 410.4 | 0.00 | 0.00 | 0.00 | 100 | 1013.7 |
| 20260504020203 | 93 | 767 | 410.4 | 410.4 | 0.00 | 0.00 | 0.00 | 100 | 1013.7 |
| 20260504015703 | 93 | 767 | 410.4 | 410.4 | 0.00 | 0.00 | 0.00 | 100 | 1013.7 |
| 20260504015203 | 93 | 767 | 410.4 | 410.4 | 0.00 | 0.00 | 0.00 | 100 | 1013.6 |
| 20260504014702 | 93 | 767 | 410.4 | 410.4 | 0.00 | 0.00 | 0.00 | 100 | 1013.6 |
| 20260504014202 | 93 | 767 | 410.4 | 410.4 | 0.00 | 0.00 | 0.00 | 100 | 1013.6 |
| 20260504013702 | 93 | 767 | 410.4 | 410.4 | 0.00 | 0.00 | 0.00 | 100 | 1013.2 |
| 20260504013201 | 93 | 767 | 410.4 | 410.4 | 0.00 | 0.00 | 0.00 | 100 | 1013.2 |
| 20260504012701 | 93 | 767 | 410.4 | 410.4 | 0.00 | 0.00 | 0.00 | 100 | 1013.2 |
| 20260504012201 | 93 | 767 | 410.4 | 410.4 | 0.00 | 0.00 | 0.00 | 100 | 1013.1 |
| 20260504011701 | 93 | 767 | 410.4 | 410.4 | 0.00 | 0.00 | 0.00 | 100 | 1013.1 |
| 20260504011200 | 93 | 767 | 410.4 | 410.4 | 0.00 | 0.00 | 0.00 | 100 | 1013.1 |
| 20260504010700 | 93 | 767 | 410.4 | 410.4 | 0.00 | 0.00 | 0.00 | 100 | 1012.8 |
| 20260504010200 | 93 | 767 | 410.4 | 410.4 | 0.00 | 0.00 | 0.00 | 100 | 1012.8 |
| 20260504005659 | 93 | 767 | 410.4 | 410.4 | 0.00 | 0.00 | 0.00 | 100 | 1012.8 |
| 20260504005159 | 93 | 767 | 410.4 | 410.4 | 0.00 | 0.00 | 0.00 | 100 | 1012.7 |
| 20260504004659 | 93 | 767 | 410.4 | 410.4 | 0.00 | 0.00 | 0.00 | 100 | 1012.7 |
| 20260504004159 | 93 | 767 | 410.4 | 410.4 | 0.00 | 0.00 | 0.00 | 100 | 1012.7 |
| 20260504003658 | 93 | 767 | 410.4 | 410.4 | 0.00 | 0.00 | 0.00 | 100 | 1012.7 |
| 20260504003158 | 93 | 767 | 410.4 | 410.4 | 0.00 | 0.00 | 0.00 | 100 | 1012.7 |
| 20260504002658 | 93 | 767 | 410.4 | 410.4 | 0.00 | 0.00 | 0.00 | 100 | 1012.7 |
| 20260504002157 | 93 | 767 | 410.4 | 410.4 | 0.00 | 0.00 | 0.00 | 100 | 1012.6 |
| 20260504001657 | 93 | 767 | 410.4 | 410.4 | 0.00 | 0.00 | 0.00 | 100 | 1012.6 |
| 20260504001157 | 93 | 767 | 410.4 | 410.4 | 0.00 | 0.00 | 0.00 | 100 | 1012.6 |
| 20260504000657 | 23 | 330 | 410.4 | 4.8 | 0.00 | 0.00 | 0.00 | 3 | 1012.4 |
| 20260504000156 | 23 | 330 | 3.2 | 6.4 | 0.00 | 0.00 | 0.00 | 3 | 1012.4 |
| 20260503235656 | 23 | 278 | 4.8 | 8.0 | 0.00 | 0.00 | 0.00 | 6 | 1012.4 |
| 20260503235156 | 23 | 332 | 4.8 | 9.7 | 0.00 | 0.00 | 0.00 | 12 | 1012.3 |
| 20260503234655 | 23 | 320 | 4.8 | 16.1 | 0.00 | 0.00 | 0.00 | 9 | 1012.3 |
| 20260503234155 | 23 | 291 | 3.2 | 9.7 | 0.00 | 0.00 | 0.00 | 10 | 1012.3 |
| 20260503233655 | 23 | 296 | 3.2 | 14.5 | 0.00 | 0.00 | 0.00 | 11 | 1012.4 |
| 20260503233154 | 23 | 266 | 3.2 | 8.0 | 0.00 | 0.00 | 0.00 | 14 | 1012.4 |
| 20260503232654 | 23 | 250 | 3.2 | 8.0 | 0.00 | 0.00 | 0.00 | 15 | 1012.4 |
| 20260503232154 | 23 | 311 | 4.8 | 11.3 | 0.00 | 0.00 | 0.00 | 17 | 1012.4 |
| 20260503231654 | 24 | 237 | 4.8 | 16.1 | 0.00 | 0.00 | 0.00 | 19 | 1012.4 |
| 20260503231153 | 24 | 302 | 4.8 | 8.0 | 0.00 | 0.00 | 0.00 | 14 | 1012.4 |
| 20260503230653 | 24 | 260 | 4.8 | 14.5 | 0.00 | 0.00 | 0.00 | 15 | 1012.4 |
| 20260503230153 | 24 | 295 | 4.8 | 16.1 | 0.00 | 0.00 | 0.00 | 13 | 1012.4 |
| 20260503225652 | 24 | 236 | 3.2 | 9.7 | 0.00 | 0.00 | 0.00 | 17 | 1012.4 |
| 20260503225152 | 24 | 265 | 3.2 | 9.7 | 0.00 | 0.00 | 0.00 | 15 | 1012.4 |
| 20260503224652 | 24 | 229 | 3.2 | 11.3 | 0.00 | 0.00 | 0.00 | 17 | 1012.4 |
| 20260503224152 | 24 | 304 | 4.8 | 9.7 | 0.00 | 0.00 | 0.00 | 18 | 1012.4 |
| 20260503223651 | 24 | 233 | 4.8 | 14.5 | 0.00 | 0.00 | 0.00 | 22 | 1012.5 |
| 20260503223151 | 24 | 290 | 4.8 | 12.9 | 0.00 | 0.00 | 0.00 | 20 | 1012.5 |
| 20260503222651 | 24 | 269 | 4.8 | 11.3 | 0.00 | 0.00 | 0.00 | 22 | 1012.5 |
| 20260503222150 | 24 | 335 | 4.8 | 11.3 | 0.00 | 0.00 | 0.00 | 22 | 1012.5 |
| 20260503221650 | 24 | 302 | 4.8 | 11.3 | 0.00 | 0.00 | 0.00 | 24 | 1012.5 |
| 20260503221150 | 24 | 272 | 4.8 | 14.5 | 0.00 | 0.00 | 0.00 | 25 | 1012.5 |
| 20260503220650 | 24 | 288 | 4.8 | 11.3 | 0.00 | 0.00 | 0.00 | 25 | 1012.5 |
| 20260503220149 | 24 | 283 | 3.2 | 12.9 | 0.00 | 0.00 | 0.00 | 20 | 1012.5 |
| 20260503215649 | 24 | 300 | 4.8 | 11.3 | 0.00 | 0.00 | 0.00 | 24 | 1012.5 |
| 20260503215149 | 24 | 343 | 4.8 | 9.7 | 0.00 | 0.00 | 0.00 | 24 | 1012.4 |
| 20260503214648 | 25 | 248 | 4.8 | 14.5 | 0.00 | 0.00 | 0.00 | 26 | 1012.4 |
| 20260503214148 | 25 | 292 | 4.8 | 16.1 | 0.00 | 0.00 | 0.00 | 27 | 1012.4 |
| 20260503213648 | 25 | 221 | 4.8 | 9.7 | 0.00 | 0.00 | 0.00 | 26 | 1012.4 |
| 20260503213147 | 25 | 313 | 4.8 | 14.5 | 0.00 | 0.00 | 0.00 | 27 | 1012.4 |
| 20260503212647 | 25 | 333 | 4.8 | 12.9 | 0.00 | 0.00 | 0.00 | 26 | 1012.4 |
| 20260503212147 | 25 | 309 | 4.8 | 14.5 | 0.00 | 0.00 | 0.00 | 28 | 1012.5 |
| 20260503211647 | 25 | 278 | 4.8 | 14.5 | 0.00 | 0.00 | 0.00 | 26 | 1012.5 |
| 20260503211146 | 25 | 262 | 4.8 | 9.7 | 0.00 | 0.00 | 0.00 | 25 | 1012.5 |
| 20260503210646 | 25 | 252 | 4.8 | 11.3 | 0.00 | 0.00 | 0.00 | 24 | 1012.6 |
| 20260503210146 | 25 | 281 | 4.8 | 16.1 | 0.00 | 0.00 | 0.00 | 29 | 1012.6 |
| 20260503205645 | 25 | 336 | 4.8 | 9.7 | 0.00 | 0.00 | 0.00 | 23 | 1012.6 |
| 20260503205145 | 25 | 290 | 4.8 | 14.5 | 0.00 | 0.00 | 0.00 | 26 | 1012.6 |
| 20260503204645 | 25 | 240 | 3.2 | 14.5 | 0.00 | 0.00 | 0.00 | 26 | 1012.6 |
| 20260503204145 | 25 | 306 | 4.8 | 6.4 | 0.00 | 0.00 | 0.00 | 26 | 1012.6 |
| 20260503203644 | 25 | 319 | 4.8 | 11.3 | 0.00 | 0.00 | 0.00 | 27 | 1012.6 |
| 20260503203144 | 25 | 223 | 4.8 | 9.7 | 0.00 | 0.00 | 0.00 | 27 | 1012.6 |
| 20260503202644 | 25 | 240 | 4.8 | 14.5 | 0.00 | 0.00 | 0.00 | 25 | 1012.6 |
| 20260503202144 | 25 | 278 | 4.8 | 14.5 | 0.00 | 0.00 | 0.00 | 27 | 1012.8 |
| 20260503201645 | 25 | 297 | 4.8 | 14.5 | 0.00 | 0.00 | 0.00 | 27 | 1012.8 |
| 20260503201143 | 25 | 325 | 4.8 | 14.5 | 0.00 | 0.00 | 0.00 | 26 | 1012.8 |
| 20260503200643 | 25 | 295 | 4.8 | 12.9 | 0.00 | 0.00 | 0.00 | 29 | 1013.2 |
| 20260503200144 | 25 | 266 | 4.8 | 14.5 | 0.00 | 0.00 | 0.00 | 31 | 1013.2 |
| 20260503195642 | 25 | 335 | 4.8 | 14.5 | 0.00 | 0.00 | 0.00 | 29 | 1013.2 |
| 20260503195142 | 25 | 267 | 4.8 | 11.3 | 0.00 | 0.00 | 0.00 | 25 | 1013.2 |
| 20260503194641 | 25 | 283 | 3.2 | 8.0 | 0.00 | 0.00 | 0.00 | 32 | 1013.2 |
| 20260503194141 | 25 | 262 | 3.2 | 16.1 | 0.00 | 0.00 | 0.00 | 36 | 1013.2 |
| 20260503193641 | 26 | 314 | 1.6 | 6.4 | 0.00 | 0.00 | 0.00 | 41 | 1013.3 |
| 20260503193141 | 25 | 342 | 1.6 | 4.8 | 0.00 | 0.00 | 0.00 | 41 | 1013.3 |
| 20260503192642 | 25 | 300 | 1.6 | 6.4 | 0.00 | 0.00 | 0.00 | 40 | 1013.3 |
| 20260503192140 | 25 | 356 | 3.2 | 4.8 | 0.00 | 0.00 | 0.00 | 42 | 1013.7 |
| 20260503191640 | 25 | 349 | 1.6 | 6.4 | 0.00 | 0.00 | 0.00 | 41 | 1013.7 |
| 20260503191139 | 25 | 359 | 1.6 | 6.4 | 0.00 | 0.00 | 0.00 | 41 | 1013.7 |
| 20260503190639 | 25 | 347 | 1.6 | 4.8 | 0.00 | 0.00 | 0.00 | 40 | 1014.2 |
| 20260503190139 | 25 | 347 | 1.6 | 4.8 | 0.00 | 0.00 | 0.00 | 38 | 1014.2 |
| 20260503185638 | 25 | 7 | 1.6 | 4.8 | 0.00 | 0.00 | 0.00 | 40 | 1014.2 |
| 20260503185138 | 25 | 39 | 1.6 | 3.2 | 0.00 | 0.00 | 0.00 | 39 | 1014.2 |
| 20260503184638 | 25 | 74 | 1.6 | 3.2 | 0.00 | 0.00 | 0.00 | 38 | 1014.2 |
| 20260503184138 | 25 | 87 | 1.6 | 3.2 | 0.00 | 0.00 | 0.00 | 37 | 1014.2 |
| 20260503183637 | 24 | 9 | 1.6 | 4.8 | 0.00 | 0.00 | 0.00 | 39 | 1014.3 |
| 20260503183137 | 25 | 28 | 1.6 | 4.8 | 0.00 | 0.00 | 0.00 | 38 | 1014.3 |
| 20260503182637 | 25 | 352 | 1.6 | 4.8 | 0.00 | 0.00 | 0.00 | 38 | 1014.3 |
| 20260503182136 | 25 | 359 | 1.6 | 4.8 | 0.00 | 0.00 | 0.00 | 37 | 1014.6 |
| 20260503181636 | 25 | 359 | 1.6 | 4.8 | 0.00 | 0.00 | 0.00 | 37 | 1014.6 |
| 20260503181136 | 25 | 146 | 1.6 | 4.8 | 0.00 | 0.00 | 0.00 | 37 | 1014.6 |
| 20260503180636 | 24 | 24 | 1.6 | 4.8 | 0.00 | 0.00 | 0.00 | 37 | 1014.7 |
| 20260503180135 | 25 | 76 | 1.6 | 4.8 | 0.00 | 0.00 | 0.00 | 38 | 1014.7 |
| 20260503175635 | 25 | 18 | 1.6 | 4.8 | 0.00 | 0.00 | 0.00 | 37 | 1014.7 |
| 20260503175135 | 25 | 72 | 3.2 | 4.8 | 0.00 | 0.00 | 0.00 | 36 | 1014.7 |
| 20260503174634 | 24 | 349 | 3.2 | 6.4 | 0.00 | 0.00 | 0.00 | 35 | 1014.7 |
| 20260503174134 | 24 | 330 | 3.2 | 6.4 | 0.00 | 0.00 | 0.00 | 35 | 1014.7 |